Location: Antioch Baptist Church
(32.6696°N, 85.7327°W)
Time: 08:54:59
(UTC+00:00)

Cosmos-2242 - Pass Details

Date: 06 November 2020
Orbit: 592 x 616 km, 82.5° (Epoch: 03 December)

Event Time Altitude Azimuth Distance (km) Brightness Sun altitude
Rises 01:01:35 0° 230° (SW) 2,824 7.2 -28.4°
Reaches altitude 10° 01:04:59 10° 259° (W) 1,933 6.5 -29.1°
Maximum altitude 01:06:52 13° 286° (WNW) 1,767 6.2 -29.5°
Drops below altitude 10° 01:08:47 10° 312° (NW) 1,944 6.1 -29.9°
Sets 01:12:14 0° 342° (NNW) 2,859 6.7 -30.6°
